Time,TemperatureF,DewpointF,PressureIn,WindDirection,WindDirectionDegrees,WindSpeedMPH,WindSpeedGustMPH,Humidity,HourlyPrecipIn,Conditions,Clouds,dailyrainin,SoftwareType,DateUTC
2013-07-31 00:01:00,81.0,75.3,30.13,SE,142,4.0,4.0,83,0.00,,SKC,0.00,VWS V14.01,2013-07-31 04:01:00,
2013-07-31 00:06:00,80.9,75.3,30.13,SE,141,5.0,5.0,83,0.00,,SKC,0.00,VWS V14.01,2013-07-31 04:06:00,
2013-07-31 00:10:00,80.7,75.4,30.12,SE,146,3.0,5.0,84,0.00,,SKC,0.00,VWS V14.01,2013-07-31 04:10:00,
2013-07-31 00:15:00,80.5,75.2,30.12,SE,136,2.0,6.0,84,0.00,,SKC,0.00,VWS V14.01,2013-07-31 04:15:00,
2013-07-31 00:20:00,80.4,75.1,30.12,SE,139,1.0,7.0,84,0.00,,SKC,0.00,VWS V14.01,2013-07-31 04:20:00,
2013-07-31 00:25:00,80.3,75.4,30.12,SSE,157,2.0,5.0,85,0.00,,SKC,0.00,VWS V14.01,2013-07-31 04:25:00,
2013-07-31 00:30:00,80.3,75.4,30.12,SSE,151,1.0,6.0,85,0.00,,SKC,0.00,VWS V14.01,2013-07-31 04:30:00,
2013-07-31 00:35:00,80.3,75.4,30.12,SSE,149,2.0,4.0,85,0.00,,SKC,0.00,VWS V14.01,2013-07-31 04:35:00,
2013-07-31 00:40:00,80.3,75.4,30.12,SSE,149,1.0,4.0,85,0.00,,SKC,0.00,VWS V14.01,2013-07-31 04:40:00,
2013-07-31 00:45:00,80.2,75.3,30.12,SSE,149,0.0,3.0,85,0.00,,SKC,0.00,VWS V14.01,2013-07-31 04:45:00,
2013-07-31 00:50:00,80.2,75.3,30.12,SSE,150,2.0,4.0,85,0.00,,SKC,0.00,VWS V14.01,2013-07-31 04:50:00,
2013-07-31 00:55:00,80.1,75.2,30.12,SSE,150,2.0,3.0,85,0.00,,SKC,0.00,VWS V14.01,2013-07-31 04:55:00,
2013-07-31 01:00:00,80.0,75.4,30.12,SSE,150,1.0,3.0,86,0.00,,SKC,0.00,VWS V14.01,2013-07-31 05:00:00,
2013-07-31 01:05:00,80.0,75.4,30.12,SSE,150,1.0,3.0,86,0.00,,SKC,0.00,VWS V14.01,2013-07-31 05:05:00,
2013-07-31 01:10:00,79.9,75.3,30.11,SSE,150,1.0,3.0,86,0.00,,SKC,0.00,VWS V14.01,2013-07-31 05:10:00,
2013-07-31 01:15:00,79.9,75.3,30.11,SSE,150,0.0,3.0,86,0.00,,SKC,0.00,VWS V14.01,2013-07-31 05:15:00,
2013-07-31 01:20:00,79.8,75.6,30.11,SSE,150,1.0,3.0,87,0.00,,SKC,0.00,VWS V14.01,2013-07-31 05:20:00,
2013-07-31 01:25:00,79.8,75.6,30.11,SSE,150,0.0,3.0,87,0.00,,SKC,0.00,VWS V14.01,2013-07-31 05:25:00,
2013-07-31 01:30:00,79.8,75.6,30.11,SSE,150,1.0,4.0,87,0.00,,SKC,0.00,VWS V14.01,2013-07-31 05:30:00,
2013-07-31 01:35:00,79.8,75.6,30.11,SSE,150,1.0,3.0,87,0.00,,SKC,0.00,VWS V14.01,2013-07-31 05:35:00,
2013-07-31 01:40:00,79.7,75.5,30.10,SSE,150,1.0,2.0,87,0.00,,SKC,0.00,VWS V14.01,2013-07-31 05:40:00,
2013-07-31 01:45:00,79.6,75.4,30.10,SSE,150,1.0,3.0,87,0.00,,SKC,0.00,VWS V14.01,2013-07-31 05:45:00,
2013-07-31 01:50:00,79.5,75.3,30.10,SSE,150,2.0,3.0,87,0.00,,SKC,0.00,VWS V14.01,2013-07-31 05:50:00,
2013-07-31 01:55:00,79.4,75.2,30.09,SSE,150,1.0,3.0,87,0.00,,SKC,0.00,VWS V14.01,2013-07-31 05:55:00,
2013-07-31 02:00:00,79.3,75.4,30.09,SSE,150,1.0,3.0,88,0.00,,SKC,0.00,VWS V14.01,2013-07-31 06:00:00,
2013-07-31 02:05:00,79.2,75.3,30.09,SSE,150,2.0,2.0,88,0.00,,SKC,0.00,VWS V14.01,2013-07-31 06:05:00,
2013-07-31 02:10:00,79.1,75.2,30.09,SSE,150,1.0,3.0,88,0.00,,SKC,0.00,VWS V14.01,2013-07-31 06:10:00,
2013-07-31 02:15:00,79.1,75.2,30.09,SSE,150,0.0,2.0,88,0.00,,SKC,0.00,VWS V14.01,2013-07-31 06:15:00,
2013-07-31 02:20:00,79.1,75.2,30.08,SSE,150,2.0,2.0,88,0.00,,SKC,0.00,VWS V14.01,2013-07-31 06:20:00,
2013-07-31 02:25:00,79.1,75.2,30.08,SSE,150,2.0,3.0,88,0.00,,SKC,0.00,VWS V14.01,2013-07-31 06:25:00,
2013-07-31 02:30:00,79.0,75.5,30.08,SSE,150,1.0,2.0,89,0.00,,SKC,0.00,VWS V14.01,2013-07-31 06:30:00,
2013-07-31 02:35:00,79.0,75.5,30.08,SSE,150,3.0,4.0,89,0.00,,SKC,0.00,VWS V14.01,2013-07-31 06:35:00,
2013-07-31 02:40:00,78.9,75.4,30.07,SSE,150,0.0,3.0,89,0.00,,SKC,0.00,VWS V14.01,2013-07-31 06:40:00,
2013-07-31 02:45:00,78.9,75.4,30.07,SSE,150,1.0,2.0,89,0.00,,SKC,0.00,VWS V14.01,2013-07-31 06:45:00,
2013-07-31 02:50:00,78.8,75.3,30.07,SSE,150,0.0,3.0,89,0.00,,SKC,0.00,VWS V14.01,2013-07-31 06:50:00,
2013-07-31 02:55:00,78.7,75.2,30.07,SSE,150,1.0,3.0,89,0.00,,SKC,0.00,VWS V14.01,2013-07-31 06:55:00,
2013-07-31 03:00:00,78.7,75.2,30.06,SSE,150,2.0,3.0,89,0.00,,SKC,0.00,VWS V14.01,2013-07-31 07:00:00,
2013-07-31 03:05:00,78.6,75.1,30.06,SSE,150,1.0,2.0,89,0.00,,SKC,0.00,VWS V14.01,2013-07-31 07:05:00,
2013-07-31 03:10:00,78.5,75.0,30.05,SSE,150,0.0,3.0,89,0.00,,SKC,0.00,VWS V14.01,2013-07-31 07:10:00,
2013-07-31 03:15:00,78.5,75.3,30.05,SSE,150,1.0,4.0,90,0.00,,SKC,0.00,VWS V14.01,2013-07-31 07:15:00,
2013-07-31 03:20:00,78.4,75.2,30.05,SSE,150,1.0,3.0,90,0.00,,SKC,0.00,VWS V14.01,2013-07-31 07:20:00,
2013-07-31 03:25:00,78.4,75.2,30.04,SSE,150,0.0,3.0,90,0.00,,SKC,0.00,VWS V14.01,2013-07-31 07:25:00,
2013-07-31 03:30:00,78.4,75.2,30.05,SSE,150,0.0,3.0,90,0.00,,SKC,0.00,VWS V14.01,2013-07-31 07:30:00,
2013-07-31 03:35:00,78.3,75.1,30.05,SSE,150,0.0,1.0,90,0.00,,SKC,0.00,VWS V14.01,2013-07-31 07:35:00,
2013-07-31 03:40:00,78.3,75.1,30.05,SSE,150,1.0,2.0,90,0.00,,SKC,0.00,VWS V14.01,2013-07-31 07:40:00,
2013-07-31 03:45:00,78.3,75.5,30.05,SSE,150,1.0,2.0,91,0.00,,SKC,0.00,VWS V14.01,2013-07-31 07:45:00,
2013-07-31 03:50:00,78.3,75.5,30.05,SSE,150,0.0,2.0,91,0.00,,SKC,0.00,VWS V14.01,2013-07-31 07:50:00,
2013-07-31 03:55:00,78.3,75.5,30.05,SSE,150,0.0,1.0,91,0.00,,SKC,0.00,VWS V14.01,2013-07-31 07:55:00,
2013-07-31 04:00:00,78.2,75.4,30.06,SSE,150,0.0,0.0,91,0.00,,SKC,0.00,VWS V14.01,2013-07-31 08:00:00,
2013-07-31 04:05:00,78.2,75.4,30.06,SSE,150,0.0,1.0,91,0.00,,SKC,0.00,VWS V14.01,2013-07-31 08:05:00,
2013-07-31 04:10:00,78.1,75.3,30.06,SSE,150,0.0,1.0,91,0.00,,SKC,0.00,VWS V14.01,2013-07-31 08:10:00,
2013-07-31 04:15:00,78.0,75.2,30.05,SSE,150,1.0,3.0,91,0.00,,SKC,0.00,VWS V14.01,2013-07-31 08:15:00,
2013-07-31 04:20:00,78.0,75.2,30.05,SSE,150,1.0,3.0,91,0.00,,SKC,0.00,VWS V14.01,2013-07-31 08:20:00,
2013-07-31 04:25:00,77.8,75.3,30.05,SSE,150,2.0,3.0,92,0.00,,SKC,0.00,VWS V14.01,2013-07-31 08:25:00,
2013-07-31 04:30:00,77.7,75.2,30.05,SSE,150,2.0,3.0,92,0.00,,SKC,0.00,VWS V14.01,2013-07-31 08:30:00,
2013-07-31 04:35:00,77.6,75.1,30.05,SSE,150,1.0,3.0,92,0.00,,SKC,0.00,VWS V14.01,2013-07-31 08:35:00,
2013-07-31 04:40:00,77.5,75.0,30.06,SSE,150,2.0,2.0,92,0.00,,SKC,0.00,VWS V14.01,2013-07-31 08:40:00,
2013-07-31 04:45:00,77.6,75.1,30.06,SSE,150,2.0,2.0,92,0.00,,SKC,0.00,VWS V14.01,2013-07-31 08:45:00,
2013-07-31 04:50:00,77.5,75.0,30.06,SSE,150,1.0,2.0,92,0.00,,SKC,0.00,VWS V14.01,2013-07-31 08:50:00,
2013-07-31 04:55:00,77.5,75.0,30.06,SSE,150,1.0,1.0,92,0.00,,SKC,0.00,VWS V14.01,2013-07-31 08:55:00,
2013-07-31 05:00:00,77.5,75.0,30.06,SSE,150,0.0,2.0,92,0.00,,SKC,0.00,VWS V14.01,2013-07-31 09:00:00,
2013-07-31 05:05:00,77.5,75.3,30.06,SSE,150,0.0,1.0,93,0.00,,SKC,0.00,VWS V14.01,2013-07-31 09:05:00,
2013-07-31 05:10:00,77.4,75.2,30.06,SSE,150,0.0,1.0,93,0.00,,SKC,0.00,VWS V14.01,2013-07-31 09:10:00,
2013-07-31 05:15:00,77.4,75.2,30.06,SSE,150,1.0,1.0,93,0.00,,SKC,0.00,VWS V14.01,2013-07-31 09:15:00,
2013-07-31 05:20:00,77.5,75.3,30.06,SSE,150,0.0,2.0,93,0.00,,SKC,0.00,VWS V14.01,2013-07-31 09:20:00,
2013-07-31 05:25:00,77.5,75.3,30.06,SSE,150,1.0,1.0,93,0.00,,SKC,0.00,VWS V14.01,2013-07-31 09:25:00,
2013-07-31 05:30:00,77.4,75.2,30.06,SSE,150,0.0,1.0,93,0.00,,SKC,0.00,VWS V14.01,2013-07-31 09:30:00,
2013-07-31 05:35:00,77.2,75.0,30.06,SSE,150,1.0,2.0,93,0.00,,SKC,0.00,VWS V14.01,2013-07-31 09:35:00,
2013-07-31 05:40:00,77.1,74.9,30.06,SSE,150,0.0,2.0,93,0.00,,SKC,0.00,VWS V14.01,2013-07-31 09:40:00,
2013-07-31 05:45:00,77.0,74.8,30.06,SSE,150,0.0,1.0,93,0.00,,SKC,0.00,VWS V14.01,2013-07-31 09:45:00,
2013-07-31 05:50:00,76.9,74.7,30.07,SSE,150,0.0,1.0,93,0.00,,SKC,0.00,VWS V14.01,2013-07-31 09:50:00,
2013-07-31 05:55:00,76.9,74.7,30.07,SSE,150,0.0,2.0,93,0.00,,SKC,0.00,VWS V14.01,2013-07-31 09:55:00,
2013-07-31 06:00:00,76.9,74.7,30.07,SSE,150,0.0,2.0,93,0.00,,SKC,0.00,VWS V14.01,2013-07-31 10:00:00,
2013-07-31 06:05:00,77.0,74.8,30.08,SSE,150,0.0,1.0,93,0.00,,SKC,0.00,VWS V14.01,2013-07-31 10:05:00,
2013-07-31 06:10:00,76.9,74.7,30.08,SSE,150,1.0,1.0,93,0.00,,SKC,0.00,VWS V14.01,2013-07-31 10:10:00,
2013-07-31 06:15:00,76.8,74.6,30.08,SSE,150,1.0,2.0,93,0.00,,SKC,0.00,VWS V14.01,2013-07-31 10:15:00,
2013-07-31 06:20:00,76.7,74.5,30.08,SSE,150,2.0,3.0,93,0.00,,SKC,0.00,VWS V14.01,2013-07-31 10:20:00,
2013-07-31 06:25:00,76.7,74.5,30.08,SSE,150,2.0,3.0,93,0.00,,SKC,0.00,VWS V14.01,2013-07-31 10:25:00,
2013-07-31 06:30:00,76.6,74.8,30.08,SSE,150,0.0,3.0,94,0.00,,SKC,0.00,VWS V14.01,2013-07-31 10:30:00,
2013-07-31 06:35:00,76.5,74.7,30.08,SSE,150,1.0,3.0,94,0.00,,SKC,0.00,VWS V14.01,2013-07-31 10:35:00,
2013-07-31 06:40:00,76.5,74.7,30.08,SSE,150,1.0,2.0,94,0.00,,SKC,0.00,VWS V14.01,2013-07-31 10:40:00,
2013-07-31 06:45:00,76.4,74.6,30.08,SSE,150,1.0,2.0,94,0.00,,SKC,0.00,VWS V14.01,2013-07-31 10:45:00,
2013-07-31 06:50:00,76.4,74.6,30.08,SSE,150,0.0,1.0,94,0.00,,SKC,0.00,VWS V14.01,2013-07-31 10:50:00,
2013-07-31 06:55:00,76.4,74.6,30.08,SSE,150,2.0,2.0,94,0.00,,SKC,0.00,VWS V14.01,2013-07-31 10:55:00,
2013-07-31 07:00:00,76.3,74.4,30.08,SSE,150,1.0,2.0,94,0.00,,SKC,0.00,VWS V14.01,2013-07-31 11:00:00,
2013-07-31 07:05:00,76.3,74.4,30.08,SSE,150,2.0,2.0,94,0.00,,SKC,0.00,VWS V14.01,2013-07-31 11:05:00,
2013-07-31 07:10:00,76.4,74.6,30.08,SSE,150,0.0,2.0,94,0.00,,SKC,0.00,VWS V14.01,2013-07-31 11:10:00,
2013-07-31 07:15:00,76.4,74.6,30.08,SSE,150,0.0,1.0,94,0.00,,SKC,0.00,VWS V14.01,2013-07-31 11:15:00,
2013-07-31 07:20:00,76.4,74.6,30.08,SSE,150,0.0,1.0,94,0.00,,SKC,0.00,VWS V14.01,2013-07-31 11:20:00,
2013-07-31 07:25:00,76.6,75.1,30.09,SSE,150,0.0,1.0,95,0.00,,SKC,0.00,VWS V14.01,2013-07-31 11:25:00,
2013-07-31 07:30:00,76.7,74.8,30.09,SSE,150,0.0,1.0,94,0.00,,SKC,0.00,VWS V14.01,2013-07-31 11:30:00,
2013-07-31 07:35:00,76.8,74.9,30.09,SSE,150,1.0,2.0,94,0.00,,SKC,0.00,VWS V14.01,2013-07-31 11:35:00,
2013-07-31 07:40:00,76.9,75.1,30.09,SSE,150,1.0,3.0,94,0.00,,SKC,0.00,VWS V14.01,2013-07-31 11:40:00,
2013-07-31 07:45:00,77.0,75.1,30.09,SSE,150,0.0,2.0,94,0.00,,SKC,0.00,VWS V14.01,2013-07-31 11:45:00,
2013-07-31 07:50:00,77.2,75.3,30.09,SSE,150,1.0,2.0,94,0.00,,SKC,0.00,VWS V14.01,2013-07-31 11:50:00,
2013-07-31 07:55:00,77.3,75.4,30.10,SSE,150,2.0,4.0,94,0.00,,SKC,0.00,VWS V14.01,2013-07-31 11:55:00,
2013-07-31 08:00:00,77.3,75.4,30.10,SSE,148,2.0,5.0,94,0.00,,SKC,0.00,VWS V14.01,2013-07-31 12:00:00,
2013-07-31 08:05:00,77.5,75.6,30.10,SE,139,2.0,4.0,94,0.00,,SKC,0.00,VWS V14.01,2013-07-31 12:05:00,
2013-07-31 08:10:00,77.5,75.6,30.10,ENE,76,1.0,5.0,94,0.00,,SKC,0.00,VWS V14.01,2013-07-31 12:10:00,
2013-07-31 08:15:00,77.7,75.8,30.10,ENE,77,4.0,4.0,94,0.00,,SKC,0.00,VWS V14.01,2013-07-31 12:15:00,
2013-07-31 08:20:00,77.9,76.0,30.11,ENE,71,2.0,4.0,94,0.00,,SKC,0.00,VWS V14.01,2013-07-31 12:20:00,
2013-07-31 08:25:00,78.0,76.1,30.11,ENE,71,2.0,4.0,94,0.00,,SKC,0.00,VWS V14.01,2013-07-31 12:25:00,
2013-07-31 08:30:00,78.2,76.3,30.10,ENE,59,3.0,4.0,94,0.00,,SKC,0.00,VWS V14.01,2013-07-31 12:30:00,
2013-07-31 08:35:00,78.4,76.5,30.11,NE,54,1.0,4.0,94,0.00,,SKC,0.00,VWS V14.01,2013-07-31 12:35:00,
2013-07-31 08:40:00,78.5,76.3,30.11,ENE,64,3.0,4.0,93,0.00,,SKC,0.00,VWS V14.01,2013-07-31 12:40:00,
2013-07-31 08:45:00,78.7,76.5,30.11,ENE,64,2.0,4.0,93,0.00,,SKC,0.00,VWS V14.01,2013-07-31 12:45:00,
2013-07-31 08:50:00,79.1,76.9,30.11,ENE,64,0.0,3.0,93,0.00,,SKC,0.00,VWS V14.01,2013-07-31 12:50:00,
2013-07-31 08:55:00,79.4,77.2,30.11,East,90,2.0,5.0,93,0.00,,SKC,0.00,VWS V14.01,2013-07-31 12:55:00,
2013-07-31 09:00:00,79.6,77.1,30.11,ESE,107,3.0,5.0,92,0.00,,SKC,0.00,VWS V14.01,2013-07-31 13:00:00,
2013-07-31 09:05:00,79.9,77.0,30.11,ENE,75,3.0,7.0,91,0.00,,SKC,0.00,VWS V14.01,2013-07-31 13:05:00,
2013-07-31 09:10:00,80.1,76.9,30.11,East,88,6.0,6.0,90,0.00,,SKC,0.00,VWS V14.01,2013-07-31 13:10:00,
2013-07-31 09:15:00,80.0,76.8,30.11,ENE,78,2.0,7.0,90,0.00,,SKC,0.00,VWS V14.01,2013-07-31 13:15:00,
2013-07-31 09:20:00,80.4,77.5,30.11,ESE,115,5.0,6.0,91,0.00,,SKC,0.00,VWS V14.01,2013-07-31 13:20:00,
2013-07-31 09:25:00,80.7,77.5,30.11,ESE,123,2.0,6.0,90,0.00,,SKC,0.00,VWS V14.01,2013-07-31 13:25:00,
2013-07-31 09:30:00,81.0,77.1,30.11,ESE,107,2.0,8.0,88,0.00,,SKC,0.00,VWS V14.01,2013-07-31 13:30:00,
2013-07-31 09:35:00,81.3,77.4,30.11,ESE,114,4.0,7.0,88,0.00,,SKC,0.00,VWS V14.01,2013-07-31 13:35:00,
2013-07-31 09:40:00,81.5,77.3,30.11,SE,126,4.0,7.0,87,0.00,,SKC,0.00,VWS V14.01,2013-07-31 13:40:00,
2013-07-31 09:45:00,81.7,77.1,30.11,East,80,5.0,6.0,86,0.00,,SKC,0.00,VWS V14.01,2013-07-31 13:45:00,
2013-07-31 09:50:00,82.2,77.2,30.11,ESE,106,4.0,5.0,85,0.00,,SKC,0.00,VWS V14.01,2013-07-31 13:50:00,
2013-07-31 09:55:00,82.5,76.8,30.11,ESE,107,3.0,3.0,83,0.00,,SKC,0.00,VWS V14.01,2013-07-31 13:55:00,
2013-07-31 10:00:00,82.7,76.7,30.11,ENE,75,1.0,7.0,82,0.00,,SKC,0.00,VWS V14.01,2013-07-31 14:00:00,
2013-07-31 10:05:00,83.1,77.0,30.11,East,83,2.0,6.0,82,0.00,,SKC,0.00,VWS V14.01,2013-07-31 14:05:00,
2013-07-31 10:10:00,83.2,76.8,30.12,SSE,159,4.0,6.0,81,0.00,,SKC,0.00,VWS V14.01,2013-07-31 14:10:00,
2013-07-31 10:15:00,83.2,76.8,30.12,East,99,3.0,7.0,81,0.00,,SKC,0.00,VWS V14.01,2013-07-31 14:15:00,
2013-07-31 10:20:00,83.8,77.3,30.11,SSE,148,1.0,4.0,81,0.00,,SKC,0.00,VWS V14.01,2013-07-31 14:20:00,
2013-07-31 10:25:00,83.9,76.7,30.11,SE,126,2.0,7.0,79,0.00,,SKC,0.00,VWS V14.01,2013-07-31 14:25:00,
2013-07-31 10:30:00,83.9,75.9,30.11,ESE,112,2.0,5.0,77,0.00,,SKC,0.00,VWS V14.01,2013-07-31 14:30:00,
2013-07-31 10:35:00,84.3,77.1,30.11,ESE,121,3.0,3.0,79,0.00,,SKC,0.00,VWS V14.01,2013-07-31 14:35:00,
2013-07-31 10:40:00,84.6,76.6,30.11,ESE,117,1.0,7.0,77,0.00,,SKC,0.00,VWS V14.01,2013-07-31 14:40:00,
2013-07-31 10:45:00,84.8,76.8,30.11,ESE,116,5.0,8.0,77,0.00,,SKC,0.00,VWS V14.01,2013-07-31 14:45:00,
2013-07-31 10:50:00,84.7,76.3,30.11,SSE,161,2.0,6.0,76,0.00,,SKC,0.00,VWS V14.01,2013-07-31 14:50:00,
2013-07-31 10:55:00,84.7,75.9,30.11,ENE,78,2.0,6.0,75,0.00,,SKC,0.00,VWS V14.01,2013-07-31 14:55:00,
2013-07-31 11:00:00,84.9,76.1,30.11,SSE,167,5.0,7.0,75,0.00,,SKC,0.00,VWS V14.01,2013-07-31 15:00:00,
2013-07-31 11:05:00,85.1,76.3,30.11,SW,221,1.0,6.0,75,0.00,,SKC,0.00,VWS V14.01,2013-07-31 15:05:00,
2013-07-31 11:10:00,85.7,76.5,30.11,ENE,71,2.0,7.0,74,0.00,,SKC,0.00,VWS V14.01,2013-07-31 15:10:00,
2013-07-31 11:15:00,86.0,75.9,30.11,ESE,104,4.0,4.0,72,0.00,,SKC,0.00,VWS V14.01,2013-07-31 15:15:00,
2013-07-31 11:20:00,85.7,75.6,30.11,SE,139,4.0,8.0,72,0.00,,SKC,0.00,VWS V14.01,2013-07-31 15:20:00,
2013-07-31 11:25:00,85.8,75.7,30.11,SE,139,5.0,7.0,72,0.00,,SKC,0.00,VWS V14.01,2013-07-31 15:25:00,
2013-07-31 11:30:00,85.9,75.4,30.11,SE,137,4.0,6.0,71,0.00,,SKC,0.00,VWS V14.01,2013-07-31 15:30:00,
2013-07-31 11:35:00,86.1,76.0,30.10,ESE,108,4.0,6.0,72,0.00,,SKC,0.00,VWS V14.01,2013-07-31 15:35:00,
2013-07-31 11:40:00,86.5,76.0,30.10,SE,139,1.0,7.0,71,0.00,,SKC,0.00,VWS V14.01,2013-07-31 15:40:00,
2013-07-31 11:45:00,86.4,75.5,30.10,NE,34,2.0,8.0,70,0.00,,SKC,0.00,VWS V14.01,2013-07-31 15:45:00,
2013-07-31 11:50:00,86.1,75.6,30.10,ENE,61,3.0,7.0,71,0.00,,SKC,0.00,VWS V14.01,2013-07-31 15:50:00,
2013-07-31 11:55:00,86.1,75.6,30.10,SSE,163,3.0,6.0,71,0.00,,SKC,0.00,VWS V14.01,2013-07-31 15:55:00,
2013-07-31 12:00:00,86.2,75.7,30.10,SE,142,2.0,6.0,71,0.00,,SKC,0.00,VWS V14.01,2013-07-31 16:00:00,
2013-07-31 12:05:00,86.3,75.8,30.10,ESE,109,4.0,7.0,71,0.00,,SKC,0.00,VWS V14.01,2013-07-31 16:05:00,
2013-07-31 12:10:00,86.7,75.3,30.10,ENE,57,1.0,4.0,69,0.00,,SKC,0.00,VWS V14.01,2013-07-31 16:10:00,
2013-07-31 12:15:00,87.1,75.7,30.10,ENE,68,4.0,5.0,69,0.00,,SKC,0.00,VWS V14.01,2013-07-31 16:15:00,
2013-07-31 12:20:00,87.2,75.8,30.10,East,91,6.0,7.0,69,0.00,,SKC,0.00,VWS V14.01,2013-07-31 16:20:00,
2013-07-31 12:25:00,87.2,75.4,30.10,ENE,63,4.0,6.0,68,0.00,,SKC,0.00,VWS V14.01,2013-07-31 16:25:00,
2013-07-31 12:30:00,87.0,75.6,30.10,ENE,59,3.0,5.0,69,0.00,,SKC,0.00,VWS V14.01,2013-07-31 16:30:00,
2013-07-31 12:35:00,87.2,75.4,30.09,ENE,69,3.0,6.0,68,0.00,,SKC,0.00,VWS V14.01,2013-07-31 16:35:00,
2013-07-31 12:40:00,87.1,74.8,30.09,East,97,2.0,2.0,67,0.00,,SKC,0.00,VWS V14.01,2013-07-31 16:40:00,
2013-07-31 12:45:00,87.0,75.2,30.09,ESE,113,1.0,1.0,68,0.00,,SKC,0.00,VWS V14.01,2013-07-31 16:45:00,
2013-07-31 12:50:00,87.0,75.2,30.09,ESE,112,2.0,3.0,68,0.00,,SKC,0.00,VWS V14.01,2013-07-31 16:50:00,
2013-07-31 12:55:00,86.8,75.4,30.09,ENE,75,2.0,2.0,69,0.00,,SKC,0.00,VWS V14.01,2013-07-31 16:55:00,
2013-07-31 13:00:00,87.3,75.9,30.09,ENE,75,1.0,1.0,69,0.00,,SKC,0.00,VWS V14.01,2013-07-31 17:00:00,
2013-07-31 13:05:00,88.2,76.3,30.08,NE,49,2.0,2.0,68,0.00,,SKC,0.00,VWS V14.01,2013-07-31 17:05:00,
2013-07-31 13:10:00,88.5,75.7,30.08,East,90,7.0,7.0,66,0.00,,SKC,0.00,VWS V14.01,2013-07-31 17:10:00,
2013-07-31 13:15:00,88.0,75.2,30.08,East,79,5.0,5.0,66,0.00,,SKC,0.00,VWS V14.01,2013-07-31 17:15:00,
2013-07-31 13:20:00,88.0,75.7,30.08,East,94,6.0,6.0,67,0.00,,SKC,0.00,VWS V14.01,2013-07-31 17:20:00,
2013-07-31 13:25:00,88.0,74.8,30.07,East,88,1.0,1.0,65,0.00,,SKC,0.00,VWS V14.01,2013-07-31 17:25:00,
2013-07-31 13:30:00,88.5,75.7,30.07,ENE,73,5.0,7.0,66,0.00,,SKC,0.00,VWS V14.01,2013-07-31 17:30:00,
2013-07-31 13:35:00,88.0,75.2,30.07,ENE,74,4.0,4.0,66,0.00,,SKC,0.00,VWS V14.01,2013-07-31 17:35:00,
2013-07-31 13:40:00,88.1,74.9,30.07,East,86,0.0,0.0,65,0.00,,SKC,0.00,VWS V14.01,2013-07-31 17:40:00,
2013-07-31 13:45:00,88.6,75.3,30.06,East,99,3.0,3.0,65,0.00,,SKC,0.00,VWS V14.01,2013-07-31 17:45:00,
2013-07-31 13:50:00,89.0,75.2,30.06,East,99,0.0,0.0,64,0.00,,SKC,0.00,VWS V14.01,2013-07-31 17:50:00,
2013-07-31 13:55:00,89.4,73.2,30.05,SSE,167,1.0,1.0,59,0.00,,SKC,0.00,VWS V14.01,2013-07-31 17:55:00,
2013-07-31 14:00:00,90.2,73.9,30.05,SSE,148,2.0,2.0,59,0.00,,SKC,0.00,VWS V14.01,2013-07-31 18:00:00,
2013-07-31 14:05:00,90.1,73.3,30.05,SE,128,5.0,6.0,58,0.00,,SKC,0.00,VWS V14.01,2013-07-31 18:05:00,
2013-07-31 14:10:00,89.9,73.7,30.05,SE,130,7.0,7.0,59,0.00,,SKC,0.00,VWS V14.01,2013-07-31 18:10:00,
2013-07-31 14:15:00,90.0,72.7,30.05,SE,142,7.0,7.0,57,0.00,,SKC,0.00,VWS V14.01,2013-07-31 18:15:00,
2013-07-31 14:20:00,90.0,72.7,30.05,East,84,5.0,5.0,57,0.00,,SKC,0.00,VWS V14.01,2013-07-31 18:20:00,
2013-07-31 14:25:00,89.9,73.2,30.04,SSE,161,1.0,2.0,58,0.00,,SKC,0.00,VWS V14.01,2013-07-31 18:25:00,
2013-07-31 14:30:00,90.1,72.8,30.04,South,182,4.0,6.0,57,0.00,,SKC,0.00,VWS V14.01,2013-07-31 18:30:00,
2013-07-31 14:35:00,90.4,73.1,30.03,SSW,211,3.0,5.0,57,0.00,,SKC,0.00,VWS V14.01,2013-07-31 18:35:00,
2013-07-31 14:40:00,90.7,72.3,30.03,South,181,8.0,8.0,55,0.00,,SKC,0.00,VWS V14.01,2013-07-31 18:40:00,
2013-07-31 14:45:00,90.9,72.5,30.03,ESE,121,4.0,5.0,55,0.00,,SKC,0.00,VWS V14.01,2013-07-31 18:45:00,
2013-07-31 14:50:00,91.0,72.6,30.02,SE,129,1.0,3.0,55,0.00,,SKC,0.00,VWS V14.01,2013-07-31 18:50:00,
2013-07-31 14:55:00,91.1,71.6,30.02,SSE,161,2.0,2.0,53,0.00,,SKC,0.00,VWS V14.01,2013-07-31 18:55:00,
2013-07-31 15:00:00,91.5,72.0,30.02,SSE,159,4.0,5.0,53,0.00,,SKC,0.00,VWS V14.01,2013-07-31 19:00:00,
2013-07-31 15:05:00,91.5,72.0,30.02,SSE,151,4.0,5.0,53,0.00,,SKC,0.00,VWS V14.01,2013-07-31 19:05:00,
2013-07-31 15:10:00,91.8,71.1,30.02,SE,130,4.0,4.0,51,0.00,,SKC,0.00,VWS V14.01,2013-07-31 19:10:00,
2013-07-31 15:15:00,91.9,71.8,30.02,SE,146,4.0,7.0,52,0.00,,SKC,0.00,VWS V14.01,2013-07-31 19:15:00,
2013-07-31 15:20:00,92.1,72.5,30.02,SE,129,1.0,1.0,53,0.00,,SKC,0.00,VWS V14.01,2013-07-31 19:20:00,
2013-07-31 15:25:00,92.7,72.5,30.01,South,186,5.0,5.0,52,0.00,,SKC,0.00,VWS V14.01,2013-07-31 19:25:00,
2013-07-31 15:30:00,92.9,72.1,30.01,SE,146,6.0,6.0,51,0.00,,SKC,0.00,VWS V14.01,2013-07-31 19:30:00,
2013-07-31 15:35:00,92.7,73.1,30.01,SSW,192,0.0,1.0,53,0.00,,SKC,0.00,VWS V14.01,2013-07-31 19:35:00,
2013-07-31 15:40:00,92.8,72.6,30.01,ESE,118,2.0,2.0,52,0.00,,SKC,0.00,VWS V14.01,2013-07-31 19:40:00,
2013-07-31 15:46:00,92.7,73.1,30.01,SSE,157,3.0,7.0,53,0.00,,SKC,0.00,VWS V14.01,2013-07-31 19:46:00,
2013-07-31 15:51:00,92.4,72.8,30.00,South,184,7.0,9.0,53,0.00,,SKC,0.00,VWS V14.01,2013-07-31 19:51:00,
2013-07-31 15:56:00,91.9,72.9,30.00,SW,219,3.0,6.0,54,0.00,,SKC,0.00,VWS V14.01,2013-07-31 19:56:00,
2013-07-31 16:01:00,92.3,73.3,30.00,SSW,211,1.0,3.0,54,0.00,,SKC,0.00,VWS V14.01,2013-07-31 20:01:00,
2013-07-31 16:06:00,92.6,73.0,30.00,SE,140,5.0,9.0,53,0.00,,SKC,0.00,VWS V14.01,2013-07-31 20:06:00,
2013-07-31 16:11:00,92.3,73.3,30.00,SSE,162,2.0,4.0,54,0.00,,SKC,0.00,VWS V14.01,2013-07-31 20:11:00,
2013-07-31 16:16:00,92.4,73.3,30.00,ESE,109,5.0,7.0,54,0.00,,SKC,0.00,VWS V14.01,2013-07-31 20:16:00,
2013-07-31 16:21:00,92.1,73.1,29.99,SSE,167,3.0,5.0,54,0.00,,SKC,0.00,VWS V14.01,2013-07-31 20:21:00,
2013-07-31 16:26:00,91.9,72.9,29.99,SE,138,3.0,6.0,54,0.00,,SKC,0.00,VWS V14.01,2013-07-31 20:26:00,
2013-07-31 16:31:00,91.3,73.4,29.99,ESE,112,8.0,10.0,56,0.00,,SKC,0.00,VWS V14.01,2013-07-31 20:31:00,
2013-07-31 16:36:00,90.8,76.0,30.00,ESE,119,11.0,13.0,62,0.00,,SKC,0.00,VWS V14.01,2013-07-31 20:36:00,
2013-07-31 16:41:00,89.3,75.5,30.00,ESE,111,9.0,21.0,64,0.00,,SKC,0.00,VWS V14.01,2013-07-31 20:41:00,
2013-07-31 16:46:00,87.2,74.9,30.00,ESE,118,8.0,15.0,67,0.00,,SKC,0.00,VWS V14.01,2013-07-31 20:46:00,
2013-07-31 16:51:00,85.7,73.0,30.00,East,90,7.0,12.0,66,0.00,,SKC,0.00,VWS V14.01,2013-07-31 20:51:00,
2013-07-31 16:56:00,85.0,72.4,30.00,East,93,6.0,7.0,66,0.00,,SKC,0.00,VWS V14.01,2013-07-31 20:56:00,
2013-07-31 17:01:00,85.0,72.4,30.00,ESE,116,1.0,7.0,66,0.00,,SKC,0.00,VWS V14.01,2013-07-31 21:01:00,
2013-07-31 17:06:00,86.0,71.5,30.00,ESE,104,7.0,12.0,62,0.00,,SKC,0.00,VWS V14.01,2013-07-31 21:06:00,
2013-07-31 17:11:00,86.5,71.5,30.00,East,101,6.0,8.0,61,0.00,,SKC,0.00,VWS V14.01,2013-07-31 21:11:00,
2013-07-31 17:16:00,86.4,71.8,30.00,ESE,115,3.0,5.0,62,0.00,,SKC,0.00,VWS V14.01,2013-07-31 21:16:00,
2013-07-31 17:21:00,86.4,72.8,29.99,SE,146,2.0,7.0,64,0.00,,SKC,0.00,VWS V14.01,2013-07-31 21:21:00,
2013-07-31 17:26:00,86.2,74.8,30.00,ESE,113,1.0,7.0,69,0.00,,SKC,0.00,VWS V14.01,2013-07-31 21:26:00,
2013-07-31 17:31:00,86.1,75.6,30.00,SE,131,5.0,9.0,71,0.00,,SKC,0.00,VWS V14.01,2013-07-31 21:31:00,
2013-07-31 17:36:00,86.0,75.9,30.00,SE,139,2.0,8.0,72,0.00,,SKC,0.00,VWS V14.01,2013-07-31 21:36:00,
2013-07-31 17:41:00,86.1,76.0,30.00,SE,126,3.0,7.0,72,0.00,,SKC,0.00,VWS V14.01,2013-07-31 21:41:00,
2013-07-31 17:46:00,86.3,76.2,30.01,South,175,3.0,6.0,72,0.00,,SKC,0.00,VWS V14.01,2013-07-31 21:46:00,
2013-07-31 17:51:00,85.7,75.2,30.02,South,186,9.0,12.0,71,0.00,,SKC,0.00,VWS V14.01,2013-07-31 21:51:00,
2013-07-31 17:56:00,82.1,73.8,30.02,SW,220,10.0,16.0,76,0.00,,SKC,0.00,VWS V14.01,2013-07-31 21:56:00,
2013-07-31 18:01:00,80.6,72.7,30.02,SSW,213,6.0,14.0,77,0.00,,SKC,0.00,VWS V14.01,2013-07-31 22:01:00,
2013-07-31 18:06:00,80.5,72.2,30.02,SW,224,12.0,12.0,76,0.00,,SKC,0.00,VWS V14.01,2013-07-31 22:06:00,
2013-07-31 18:11:00,80.5,72.2,30.01,WSW,238,9.0,9.0,76,0.00,,SKC,0.00,VWS V14.01,2013-07-31 22:11:00,
2013-07-31 18:16:00,79.7,72.6,30.01,SW,229,7.0,9.0,79,0.00,,SKC,0.00,VWS V14.01,2013-07-31 22:16:00,
2013-07-31 18:21:00,79.2,73.2,30.01,SSW,198,8.0,9.0,82,0.00,,SKC,0.00,VWS V14.01,2013-07-31 22:21:00,
2013-07-31 18:26:00,78.2,72.3,30.01,SW,227,5.0,8.0,82,0.00,,SKC,0.00,VWS V14.01,2013-07-31 22:26:00,
2013-07-31 18:31:00,77.6,72.4,30.01,WSW,242,7.0,8.0,84,0.00,,SKC,0.00,VWS V14.01,2013-07-31 22:31:00,
2013-07-31 18:36:00,77.7,72.8,30.01,SW,225,2.0,5.0,85,0.00,,SKC,0.00,VWS V14.01,2013-07-31 22:36:00,
2013-07-31 18:41:00,77.5,72.3,30.01,WSW,246,3.0,5.0,84,0.00,,SKC,0.00,VWS V14.01,2013-07-31 22:41:00,
2013-07-31 18:46:00,77.6,72.7,30.01,WNW,284,3.0,4.0,85,0.00,,SKC,0.00,VWS V14.01,2013-07-31 22:46:00,
2013-07-31 18:51:00,77.5,72.3,30.00,WNW,284,2.0,3.0,84,0.00,,SKC,0.00,VWS V14.01,2013-07-31 22:51:00,
2013-07-31 18:56:00,77.6,72.4,30.00,WNW,284,1.0,3.0,84,0.00,,SKC,0.00,VWS V14.01,2013-07-31 22:56:00,
2013-07-31 19:01:00,77.6,72.0,30.00,WNW,284,0.0,3.0,83,0.00,,SKC,0.00,VWS V14.01,2013-07-31 23:01:00,
2013-07-31 19:06:00,78.1,72.9,30.01,WNW,284,2.0,2.0,84,0.00,,SKC,0.00,VWS V14.01,2013-07-31 23:06:00,
2013-07-31 19:11:00,78.4,72.8,30.01,WNW,284,2.0,2.0,83,0.00,,SKC,0.00,VWS V14.01,2013-07-31 23:11:00,
2013-07-31 19:16:00,78.7,72.8,30.01,WNW,284,1.0,2.0,82,0.00,,SKC,0.00,VWS V14.01,2013-07-31 23:16:00,
2013-07-31 19:21:00,79.0,73.0,30.01,WNW,284,1.0,2.0,82,0.00,,SKC,0.00,VWS V14.01,2013-07-31 23:21:00,
2013-07-31 19:26:00,79.2,73.2,30.00,WNW,282,3.0,3.0,82,0.00,,SKC,0.00,VWS V14.01,2013-07-31 23:26:00,
2013-07-31 19:31:00,79.4,73.1,30.00,SSE,167,3.0,3.0,81,0.00,,SKC,0.00,VWS V14.01,2013-07-31 23:31:00,
2013-07-31 19:36:00,79.6,72.5,30.00,SSE,167,0.0,0.0,79,0.00,,SKC,0.00,VWS V14.01,2013-07-31 23:36:00,
2013-07-31 19:41:00,79.8,72.3,30.01,SSE,167,0.0,1.0,78,0.00,,SKC,0.00,VWS V14.01,2013-07-31 23:41:00,
2013-07-31 19:46:00,80.3,73.2,30.01,SSE,167,2.0,3.0,79,0.00,,SKC,0.00,VWS V14.01,2013-07-31 23:46:00,
2013-07-31 19:51:00,80.3,73.2,30.01,SSE,167,2.0,2.0,79,0.00,,SKC,0.00,VWS V14.01,2013-07-31 23:51:00,
2013-07-31 19:56:00,80.2,73.5,30.01,ENE,74,2.0,3.0,80,0.00,,SKC,0.00,VWS V14.01,2013-07-31 23:56:00,
2013-07-31 20:01:00,79.8,73.4,30.01,NE,36,1.0,3.0,81,0.00,,SKC,0.00,VWS V14.01,2013-08-01 00:01:00,
2013-07-31 20:06:00,79.7,73.4,30.01,NE,36,3.0,4.0,81,0.00,,SKC,0.00,VWS V14.01,2013-08-01 00:06:00,
2013-07-31 20:11:00,79.6,73.6,30.01,NE,36,2.0,3.0,82,0.00,,SKC,0.00,VWS V14.01,2013-08-01 00:11:00,
2013-07-31 20:16:00,79.4,73.4,30.00,NNE,26,1.0,4.0,82,0.00,,SKC,0.00,VWS V14.01,2013-08-01 00:16:00,
2013-07-31 20:21:00,79.4,73.4,30.01,NNE,26,0.0,1.0,82,0.00,,SKC,0.00,VWS V14.01,2013-08-01 00:21:00,
2013-07-31 20:26:00,79.5,73.2,30.01,North,5,0.0,3.0,81,0.00,,SKC,0.00,VWS V14.01,2013-08-01 00:26:00,
2013-07-31 20:31:00,79.4,73.1,30.01,North,5,0.0,2.0,81,0.00,,SKC,0.00,VWS V14.01,2013-08-01 00:31:00,
2013-07-31 20:36:00,79.2,72.9,30.01,North,5,1.0,2.0,81,0.00,,SKC,0.00,VWS V14.01,2013-08-01 00:36:00,
2013-07-31 20:41:00,79.3,73.0,30.02,North,5,1.0,1.0,81,0.00,,SKC,0.00,VWS V14.01,2013-08-01 00:41:00,
2013-07-31 20:46:00,79.4,73.1,30.02,North,5,0.0,1.0,81,0.00,,SKC,0.00,VWS V14.01,2013-08-01 00:46:00,
2013-07-31 20:51:00,79.6,73.3,30.03,North,5,0.0,0.0,81,0.00,,SKC,0.00,VWS V14.01,2013-08-01 00:51:00,
2013-07-31 20:56:00,79.9,73.6,30.04,North,5,0.0,0.0,81,0.00,,SKC,0.00,VWS V14.01,2013-08-01 00:56:00,
2013-07-31 21:01:00,80.0,73.7,30.04,NNW,327,1.0,4.0,81,0.00,,SKC,0.00,VWS V14.01,2013-08-01 01:01:00,
2013-07-31 21:06:00,79.7,73.0,30.05,WNW,282,7.0,7.0,80,0.00,,SKC,0.00,VWS V14.01,2013-08-01 01:06:00,
2013-07-31 21:11:00,79.0,72.7,30.05,WNW,297,9.0,14.0,81,0.00,,SKC,0.00,VWS V14.01,2013-08-01 01:11:00,
2013-07-31 21:16:00,78.2,72.6,30.05,NNW,331,3.0,3.0,83,0.00,,SKC,0.00,VWS V14.01,2013-08-01 01:16:00,
2013-07-31 21:21:00,78.0,72.8,30.06,WNW,294,9.0,11.0,84,0.00,,SKC,0.00,VWS V14.01,2013-08-01 01:21:00,
2013-07-31 21:26:00,77.6,72.7,30.05,NW,308,8.0,8.0,85,0.00,,SKC,0.00,VWS V14.01,2013-08-01 01:26:00,
2013-07-31 21:31:00,77.1,72.2,30.05,WNW,288,3.0,8.0,85,0.00,,SKC,0.00,VWS V14.01,2013-08-01 01:31:00,
2013-07-31 21:36:00,76.7,71.9,30.05,WNW,300,5.0,8.0,85,0.00,,SKC,0.00,VWS V14.01,2013-08-01 01:36:00,
2013-07-31 21:41:00,76.6,72.1,30.05,NNW,344,1.0,4.0,86,0.00,,SKC,0.00,VWS V14.01,2013-08-01 01:41:00,
2013-07-31 21:46:00,76.4,71.9,30.05,WNW,294,2.0,6.0,86,0.00,,SKC,0.00,VWS V14.01,2013-08-01 01:46:00,
2013-07-31 21:51:00,76.3,72.2,30.05,NNW,330,1.0,2.0,87,0.00,,SKC,0.00,VWS V14.01,2013-08-01 01:51:00,
2013-07-31 21:56:00,76.4,72.2,30.06,North,355,2.0,5.0,87,0.00,,SKC,0.00,VWS V14.01,2013-08-01 01:56:00,
2013-07-31 22:01:00,76.2,72.1,30.06,North,360,1.0,5.0,87,0.00,,SKC,0.00,VWS V14.01,2013-08-01 02:01:00,
2013-07-31 22:07:00,75.9,71.8,30.06,NNW,336,0.0,2.0,87,0.00,,SKC,0.00,VWS V14.01,2013-08-01 02:07:00,
2013-07-31 22:12:00,75.9,72.1,30.06,NNW,336,2.0,2.0,88,0.00,,SKC,0.00,VWS V14.01,2013-08-01 02:12:00,
2013-07-31 22:16:00,75.8,72.0,30.06,NNW,336,1.0,2.0,88,0.00,,SKC,0.00,VWS V14.01,2013-08-01 02:16:00,
2013-07-31 22:21:00,75.7,71.9,30.07,NNW,337,1.0,4.0,88,0.00,,SKC,0.00,VWS V14.01,2013-08-01 02:21:00,
2013-07-31 22:26:00,75.6,71.8,30.07,North,9,1.0,3.0,88,0.00,,SKC,0.00,VWS V14.01,2013-08-01 02:26:00,
2013-07-31 22:32:00,75.7,71.9,30.06,NNE,19,4.0,6.0,88,0.00,,SKC,0.00,VWS V14.01,2013-08-01 02:32:00,
2013-07-31 22:37:00,75.6,72.1,30.06,NNE,17,6.0,6.0,89,0.00,,SKC,0.00,VWS V14.01,2013-08-01 02:37:00,
2013-07-31 22:42:00,75.6,72.1,30.06,NNE,16,2.0,6.0,89,0.00,,SKC,0.00,VWS V14.01,2013-08-01 02:42:00,
2013-07-31 22:47:00,75.6,72.1,30.06,NNE,16,0.0,2.0,89,0.00,,SKC,0.00,VWS V14.01,2013-08-01 02:47:00,
2013-07-31 22:52:00,75.7,72.6,30.06,NNE,16,3.0,4.0,90,0.00,,SKC,0.00,VWS V14.01,2013-08-01 02:52:00,
2013-07-31 22:57:00,75.6,72.5,30.06,NNE,16,0.0,3.0,90,0.00,,SKC,0.00,VWS V14.01,2013-08-01 02:57:00,
2013-07-31 23:02:00,75.6,72.5,30.06,NNE,16,1.0,4.0,90,0.00,,SKC,0.00,VWS V14.01,2013-08-01 03:02:00,
2013-07-31 23:07:00,75.5,72.4,30.06,NNE,16,2.0,3.0,90,0.01,,SKC,0.01,VWS V14.01,2013-08-01 03:07:00,
2013-07-31 23:12:00,75.5,72.7,30.06,NNE,16,2.0,3.0,91,0.01,,SKC,0.01,VWS V14.01,2013-08-01 03:12:00,
2013-07-31 23:17:00,75.3,72.5,30.05,NNE,16,2.0,3.0,91,0.01,,SKC,0.01,VWS V14.01,2013-08-01 03:17:00,
2013-07-31 23:21:00,75.2,72.4,30.05,NNE,16,1.0,3.0,91,0.01,,SKC,0.01,VWS V14.01,2013-08-01 03:21:00,
2013-07-31 23:26:00,75.2,72.4,30.05,NNE,16,2.0,2.0,91,0.01,,SKC,0.01,VWS V14.01,2013-08-01 03:26:00,
2013-07-31 23:32:00,75.1,72.6,30.05,NNE,16,2.0,3.0,92,0.02,,SKC,0.02,VWS V14.01,2013-08-01 03:32:00,
2013-07-31 23:37:00,75.1,72.6,30.06,NNE,16,3.0,3.0,92,0.03,,SKC,0.03,VWS V14.01,2013-08-01 03:37:00,
2013-07-31 23:42:00,75.1,72.6,30.06,NNE,16,1.0,1.0,92,0.03,,SKC,0.03,VWS V14.01,2013-08-01 03:42:00,
2013-07-31 23:47:00,75.1,72.6,30.06,NNE,16,1.0,1.0,92,0.03,,SKC,0.03,VWS V14.01,2013-08-01 03:47:00,
2013-07-31 23:52:00,75.0,72.5,30.06,NNE,16,2.0,2.0,92,0.04,,SKC,0.04,VWS V14.01,2013-08-01 03:52:00,
2013-07-31 23:55:00,75.0,72.8,30.06,NNE,16,3.0,4.0,93,0.04,,SKC,0.04,VWS V14.01,2013-08-01 03:55:00,
2013-07-31 23:57:00,74.9,72.7,30.06,NNE,16,1.0,3.0,93,0.05,,SKC,0.05,VWS V14.01,2013-08-01 03:57:00,